Flag for Canada Weather past 2 weeks in Rouyn-Noranda, Quebec, Canada

Now
45 °F

Scattered clouds.


Feels Like: 38 °F
Forecast: 24 / 65 °F
Wind: 15 mph from Southwest

Location: Rouyn Airport

Current Time: May 23, 2015 at 9:58:51 AM

Latest Report: May 23, 2015 at 9:00 AM


Visibility: 15 mi

Pressure: 30.22 "Hg

Humidity: 42%

Dew point: 23 °F

Location of Rouyn-NorandaLocation

Historic Weather in Rouyn-Noranda — Graph

°F

Rouyn-Noranda temperature yesterday

Maximum temperature yesterday: 43 °F (at 4:00 PM)
Minimum temperature yesterday: 25 °F (at 6:00 AM)
Average temperature yesterday: 35 °F

Past Weeks' High & Low Weather Summary

 TemperatureHumidityPressure
High82 °F (May 8, 3:00 PM)100% (May 11, 9:00 PM)30.41 "Hg (May 11, 9:00 PM)
Low25 °F (May 22, 6:00 AM)22% (May 14, 2:00 PM)29.59 "Hg (May 12, 4:00 AM)
Average48 °F70%30.04 "Hg
* Reported May 8 8:00 AM — May 23 8:00 AM, Rouyn-Noranda, Weather by CustomWeather, © 2015

Note: Actual official high and low records may vary slightly from our data, if they occured in-between our weather recording intervals... More about our weather records

Advertising

Rouyn-Noranda weather history for previous 24 hours

 ConditionsComfort  
Time TempWeatherWind HumidityBarometerVisibility
8:00 AM
Sat, May 23
39 °FScattered clouds.10 mph52%30.24 "Hg15 mi
7:00 AM30 °FScattered clouds.6 mph75%30.25 "Hg15 mi
6:00 AM27 °FPassing clouds.6 mph86%30.24 "Hg15 mi
5:00 AM25 °FPassing clouds.5 mph86%30.25 "Hg15 mi
4:00 AM25 °FPassing clouds.2 mph86%30.24 "Hg15 mi
3:00 AM25 °FClear.No wind86%30.26 "Hg15 mi
2:00 AM28 °FClear.No wind74%30.26 "Hg15 mi
1:00 AM30 °FPassing clouds.3 mph69%30.26 "Hg15 mi
12:00 AM34 °FPassing clouds.5 mph60%30.26 "Hg15 mi
11:00 PM
Fri, May 22
37 °FPassing clouds.6 mph52%30.25 "Hg15 mi
10:00 PM37 °FPassing clouds.6 mph56%30.24 "Hg15 mi
9:00 PM37 °FPartly sunny.7 mph52%30.22 "Hg15 mi
8:00 PM39 °FPartly sunny.12 mph45%30.22 "Hg15 mi
7:00 PM41 °FSnow flurries. Partly sunny.9 mph42%30.21 "Hg15 mi
6:00 PM41 °FSnow flurries. Broken clouds.13 mph39%30.21 "Hg15 mi
5:00 PM43 °FScattered showers. Broken clouds.13 mph39%30.19 "Hg15 mi
4:00 PM43 °FScattered showers. Partly sunny.12 mph46%30.18 "Hg15 mi
3:00 PM39 °FScattered showers. Broken clouds.9 mph48%30.17 "Hg15 mi
2:00 PM39 °FScattered showers. Broken clouds.13 mph48%30.16 "Hg15 mi
1:00 PM36 °FSnow flurries. Broken clouds.12 mph52%30.15 "Hg10 mi
12:00 PM34 °FSnow flurries. Overcast.16 mph60%30.15 "Hg3 mi
11:00 AM36 °FSnow flurries. Partly sunny.15 mph48%30.14 "Hg15 mi
10:00 AM37 °FScattered showers. Scattered clouds.13 mph52%30.12 "Hg15 mi
9:00 AM34 °FScattered clouds.10 mph51%30.11 "Hg15 mi
Weather by CustomWeather, © 2015

See weather overviewHow to use our weather pages